Location: Lombard
(41.8800°N, 88.0080°W)
Time: 17:24:06
(UTC-06:00)

Vanguard 3 - Pass Details

Date: 18 December 2023
Orbit: 508 x 3239 km, 33.4° (Epoch: 23 February)

Event Time Altitude Azimuth Distance (km) Brightness Sun altitude
Rises 22:12:20 0° 277° (W) 6,935 12.2 -62.7°
Reaches altitude 10° 22:17:44 10° 272° (W) 5,632 11.6 -63.5°
Enters shadow 22:23:51 24° 260° (W) 4,150 10.7 -64.4°
